Tracking 23757 objects as of 26-Oct-2021
HD Live streaming from Space Station
objects crossing your sky now

COSMOS 528

Track COSMOS 528 now!
10-day predictions
COSMOS 528 is classified as:


NORAD ID: 6262
Int'l Code: 1972-087A
Perigee: 1,372.4 km
Apogee: 1,474.8 km
Inclination: 74.0 °
Period: 114.1 minutes
Semi major axis: 7794 km
RCS: 0.7007 m2 (medium)
Launch date: November 1, 1972
Source: Commonwealth of Independent States (former USSR) (CIS)
Launch site: PLESETSK MISSILE AND SPACE COMPLEX (PKMTR)
aabbcc
Your satellite tracking list
Your tracking list is empty




NASA's NSSDC Master Catalog

Two Line Element Set (TLE):
1 06262U 72087A   21298.27027497 -.00000013  00000-0  21352-4 0  9992
2 06262  74.0326 283.1040 0065706 333.8287 134.4353 12.61573292255908
Source of the keplerian elements: AFSPC